• Join FlightAware (Why Join?)
  • Login
  • US Flag GB Flag 
15:26 EST


 

Airport Tracker/Info


-or-


 

Live Flight TrackerFlight Track Log ✈ FFT532 ✈ 19-Jul-2013 ✈ KMDW - KTTN

Flight Track Log - Related Links

Times and Time Zones

All times are in EDT time to prevent confusion due to time zone crossing. See the FFT532 flight status page for this flight to view local times or setup timezone preferences in your user account.

Time Position Orientation Groundspeed Altitude Reporting Facility
EDT Latitude Longitude Course Direction KTS MPH feet Rate Location/Type
12:45 41.7720 -87.7710 250° West 131 151 1,900  Level FlightAware
12:45 41.7720 -87.7750 270° West 135 155 2,100 1,241 Climbing FlightAware
12:45 41.7810 -87.7910 307° West 180 207 2,500 1,029 Climbing FlightAware
12:45 41.7910 -87.7930 352° North 206 237 2,700 909 Climbing FlightAware
12:46 41.8130 -87.7780 27° Northeast 260 299 3,000 514 Climbing FlightAware
12:46 41.8220 -87.7580 59° Northeast 278 320 3,000  Level FlightAware
12:46 41.8250 -87.7380 79° East 282 325 3,000 977 Level FlightAware
12:47 41.8180 -87.6830 100° East 301 346 3,700 2,143 Climbing FlightAware
12:47 41.8130 -87.6330 98° East 309 356 5,000 3,164 Climbing FlightAware
12:48 41.8080 -87.5790 97° East 313 360 6,600 3,545 Climbing FlightAware
12:48 41.8060 -87.5520 96° East 306 352 7,600 3,300 Climbing FlightAware
12:48 41.8020 -87.5040 96° East 313 360 8,800 2,735 Climbing FlightAware
12:49 41.7940 -87.4150 97° East 331 381 10,700 2,214 Climbing FlightAware
12:50 41.7860 -87.3280 97° East 365 420 11,900 2,286 Climbing FlightAware
12:50 41.7770 -87.2290 97° East 374 430 13,900 2,483 Climbing FlightAware
12:51 41.7680 -87.1260 97° East 386 444 15,500 2,241 Climbing FlightAware
12:52 41.7620 -87.0350 95° East 396 456 17,000 2,175 Climbing FlightAware
12:53 41.7640 -86.9300 89° East 409 471 18,400 1,976 Climbing FlightAware
12:53 41.7650 -86.8200 89° East 418 481 19,800 1,955 Climbing FlightAware
12:54 41.7660 -86.6990 89° East 429 494 21,300 1,840 Climbing FlightAware
12:55 41.7670 -86.6210 89° East 435 501 22,100 1,680 Climbing FlightAware
12:55 41.7680 -86.4960 89° East 444 511 23,400 1,600 Climbing FlightAware
12:56 41.7680 -86.4140 90° East 450 518 24,100 1,615 Climbing FlightAware
12:57 41.7690 -86.2780 89° East 456 525 25,500 1,636 Climbing FlightAware
12:57 41.7710 -86.1640 89° East 461 531 26,500 1,518 Climbing FlightAware
12:58 41.7720 -86.0470 89° East 467 537 27,600 1,234 Climbing FlightAware
12:59 41.7730 -85.9010 89° East 475 547 28,700 1,138 Climbing FlightAware
13:00 41.7750 -85.7540 89° East 479 551 29,800 1,431 Climbing FlightAware
13:01 41.7760 -85.5740 90° East 480 552 31,300 1,756 Climbing FlightAware
13:02 41.7770 -85.3480 90° East 472 543 33,400 1,907 Climbing FlightAware
13:03 41.7780 -85.2260 89° East 463 533 34,700 1,595 Climbing FlightAware
13:03 41.7780 -85.1110 90° East 459 528 35,500 1,500 Climbing FlightAware
13:04 41.7780 -84.9950 90° East 450 518 36,700 1,084 Climbing FlightAware
13:05 41.7780 -84.8870 90° East 451 519 37,000 176 Climbing FlightAware
13:06 41.7780 -84.7480 90° East 448 516 37,000  Level FlightAware
13:06 41.7780 -84.6440 90° East 448 516 37,000  Level FlightAware
13:07 41.7780 -84.4760 90° East 447 514 37,000  Level FlightAware
13:08 41.7730 -84.3580 93° East 445 512 37,000  Level FlightAware
13:08 41.7660 -84.2470 95° East 445 512 37,000  Level FlightAware
13:09 41.7580 -84.1380 96° East 444 511 37,000  Level FlightAware
13:10 41.7510 -84.0310 95° East 444 511 37,000  Level FlightAware
13:11 41.7390 -83.8540 95° East 444 511 37,000  Level FlightAware
13:12 41.7280 -83.6970 95° East 445 512 37,000  Level FlightAware
13:13 41.7190 -83.5830 96° East 447 514 37,000  Level FlightAware
13:13 41.7100 -83.4600 96° East 448 516 37,000  Level FlightAware
13:14 41.7020 -83.3450 95° East 449 517 37,000  Level FlightAware
13:15 41.6910 -83.2090 96° East 449 517 37,000  Level FlightAware
13:15 41.6860 -83.1410 96° East 449 517 37,000  Level FlightAware
13:16 41.6640 -83.0210 104° East 447 514 37,000  Level FlightAware
13:17 41.6250 -82.8880 111° Southeast 446 513 37,000  Level FlightAware
13:18 41.5790 -82.7360 112° Southeast 444 511 37,000  Level FlightAware
13:18 41.5480 -82.6320 112° Southeast 443 510 37,000  Level FlightAware
13:19 41.5150 -82.5240 112° Southeast 442 509 37,000  Level FlightAware
13:20 41.4820 -82.4140 112° Southeast 444 511 37,000  Level FlightAware
13:21 41.4630 -82.3520 112° Southeast 443 510 37,000  Level FlightAware
13:22 41.4200 -82.2120 112° Southeast 444 511 37,000  Level FlightAware
13:22 41.3750 -82.0640 112° Southeast 446 513 37,000  Level FlightAware
13:23 41.3390 -81.9480 112° Southeast 445 512 37,000  Level FlightAware
13:24 41.3080 -81.8490 113° Southeast 445 512 37,000  Level FlightAware
13:24 41.2840 -81.7720 113° Southeast 444 511 37,000  Level FlightAware
13:25 41.2530 -81.6720 112° Southeast 443 510 37,000  Level FlightAware
13:26 41.2070 -81.5280 113° Southeast 442 509 37,000  Level FlightAware
13:26 41.1790 -81.4380 112° Southeast 441 507 37,000  Level FlightAware
13:27 41.1450 -81.3290 112° Southeast 441 507 37,000  Level FlightAware
13:28 41.1120 -81.2270 113° Southeast 441 507 37,000  Level FlightAware
13:29 41.0780 -81.1200 113° Southeast 441 507 37,000  Level FlightAware
13:29 41.0510 -81.0340 113° Southeast 440 506 37,000  Level FlightAware
13:30 41.0200 -80.9400 114° Southeast 440 506 37,000  Level FlightAware
13:31 40.9760 -80.8020 113° Southeast 440 506 37,000  Level FlightAware
13:31 40.9420 -80.6990 114° Southeast 441 507 37,000  Level FlightAware
13:32 40.9120 -80.6040 113° Southeast 443 510 37,000  Level FlightAware
13:33 40.8810 -80.5090 113° Southeast 443 510 37,000  Level FlightAware
13:33 40.8590 -80.4440 114° Southeast 443 510 37,000  Level FlightAware
13:34 40.8230 -80.3320 113° Southeast 443 510 37,000  Level FlightAware
13:35 40.7760 -80.1920 114° Southeast 441 507 37,000  Level FlightAware
13:35 40.7430 -80.0910 113° Southeast 440 506 37,000  Level FlightAware
13:36 40.7030 -79.9720 114° Southeast 439 505 37,000  Level FlightAware
13:37 40.6710 -79.8740 113° Southeast 437 503 37,000  Level FlightAware
13:38 40.6480 -79.8050 114° Southeast 436 502 37,000  Level FlightAware
13:38 40.6160 -79.7100 114° Southeast 436 502 37,000 -69 Level FlightAware
13:39 40.5670 -79.5640 114° Southeast 435 501 36,900 -273 Descending FlightAware
13:40 40.5320 -79.4620 114° Southeast 435 501 36,600 -488 Descending FlightAware
13:40 40.4960 -79.3570 114° Southeast 438 504 36,200 -500 Descending FlightAware
13:41 40.4700 -79.2800 114° Southeast 435 501 35,900 -439 Descending FlightAware
13:42 40.4390 -79.1880 114° Southeast 435 501 35,600 -558 Descending FlightAware
13:43 40.3920 -79.0510 114° Southeast 435 501 35,100 -558 Descending FlightAware
13:43 40.3570 -78.9500 114° Southeast 434 499 34,800 -578 Descending FlightAware
13:44 40.3310 -78.8540 110° East 428 493 34,300 -769 Descending FlightAware
13:45 40.3180 -78.7540 100° East 444 511 33,800 -867 Descending FlightAware
13:45 40.3170 -78.6310 91° East 453 521 33,100 -1,000 Descending FlightAware
13:46 40.3160 -78.5100 91° East 453 521 32,300 -1,643 Descending FlightAware
13:47 40.3160 -78.4110 90° East 457 526 30,800 -1,735 Descending FlightAware
13:47 40.3150 -78.3340 91° East 447 514 29,900 -1,846 Descending FlightAware
13:48 40.3150 -78.2260 90° East 435 501 28,400 -2,526 Descending FlightAware
13:49 40.3140 -78.1000 91° East 422 486 26,700 -2,268 Descending FlightAware
13:49 40.3130 -77.9900 91° East 437 503 25,300 -1,342 Descending FlightAware
13:50 40.3120 -77.9060 91° East 411 473 25,000 -1,247 Descending FlightAware
13:51 40.3110 -77.7960 91° East 412 474 23,700 -1,141 Descending FlightAware
13:56 40.2590 -77.0490 95° East 363 418 18,000 -937 Descending FlightAware
13:57 40.2470 -76.9810 103° East 364 419 18,000  Level FlightAware
13:58 40.2430 -76.8070 92° East 368 423 18,000 -491 Level FlightAware
13:59 40.2460 -76.7230 87° East 365 420 17,100 -1,350 Descending FlightAware
13:59 40.2480 -76.6560 88° East 360 414 16,200 -1,310 Descending FlightAware
14:00 40.2500 -76.5780 88° East 365 420 15,200 -1,744 Descending FlightAware
14:01 40.2530 -76.4500 88° East 345 397 13,700 -1,765 Descending FlightAware
14:01 40.2490 -76.3540 93° East 342 394 12,700 -1,091 Descending FlightAware
14:02 40.2450 -76.2880 95° East 337 388 12,300 -575 Descending FlightAware
14:03 40.2370 -76.2080 97° East 333 383 12,000 -375 Descending FlightAware
14:03 40.2310 -76.1540 98° East 331 381 11,800 -419 Descending FlightAware
14:04 40.2180 -76.0630 101° East 329 379 11,400 -717 Descending FlightAware
14:05 40.1950 -75.9520 105° East 322 371 10,700 -1,000 Descending FlightAware
14:06 40.1630 -75.8940 126° Southeast 314 361 10,000 -1,000 Descending FlightAware
14:06 40.1390 -75.8510 126° Southeast 305 351 9,600 -1,147 Descending FlightAware
14:07 40.1080 -75.7940 125° Southeast 304 350 8,700 -1,083 Descending FlightAware
14:07 40.0920 -75.7640 125° Southeast 304 350 8,300 -1,135 Descending FlightAware
14:07 40.0870 -75.7420 107° East 309 356 8,000 -900 Descending FlightAware
14:08 40.0950 -75.6920 78° East 309 356 7,700 -563 Descending FlightAware
14:08 40.1070 -75.6340 75° East 310 357 7,400 -588 Descending FlightAware
14:09 40.1180 -75.5810 75° East 307 353 7,200 -612 Descending FlightAware
14:09 40.1290 -75.5290 75° East 309 356 6,900 -571 Descending FlightAware
14:10 40.1430 -75.4630 74° East 306 352 6,600 -590 Descending FlightAware
14:10 40.1530 -75.4150 75° East 304 350 6,300 -462 Descending FlightAware
14:11 40.1600 -75.3810 75° East 304 350 6,200 -277 Descending FlightAware
14:11 40.1750 -75.3110 74° East 303 349 6,000 -383 Descending FlightAware
14:11 40.1730 -75.3200 254° West 297 342 5,900 -750 Descending FlightAware
14:12 40.1860 -75.2570 75° East 299 344 5,500 -643 Descending FlightAware
14:12 40.1950 -75.2120 75° East 299 344 5,300 -600 Descending FlightAware
14:13 40.2050 -75.1630 75° East 295 339 5,100 -419 Descending FlightAware
14:13 40.2140 -75.1170 76° East 295 339 5,000 -105 Descending FlightAware
14:14 40.2250 -75.0650 74° East 294 338 5,000  Level FlightAware
14:14 40.2310 -75.0340 76° East 277 319 5,000  Level FlightAware
14:14 40.2330 -75.0170 81° East 265 305 5,000 -140 Level FlightAware
14:15 40.2160 -74.9740 117° Southeast 248 285 4,900 -353 Descending FlightAware
14:15 40.1990 -74.9520 135° Southeast 250 288 4,700 -450 Descending FlightAware
14:15 40.1930 -74.9270 107° East 253 291 4,600 -490 Descending FlightAware
14:16 40.2000 -74.8800 79° East 255 293 4,300 -873 Descending FlightAware
14:16 40.2070 -74.8410 77° East 256 295 3,800 -1,091 Descending FlightAware
14:16 40.2140 -74.8150 71° East 253 291 3,500 -1,286 Descending FlightAware
14:17 40.2320 -74.7840 53° Northeast 253 291 2,900 -1,038 Descending FlightAware
14:17 40.2520 -74.7540 49° Northeast 240 276 2,600 -409 Descending FlightAware
14:18 40.2650 -74.7370 45° Northeast 228 262 2,600 -136 Level FlightAware
14:18 40.2830 -74.7110 48° Northeast 201 231 2,500 -300 Descending FlightAware
14:18 40.2940 -74.7080 12° North 191 220 2,400 -882 Descending FlightAware
14:19 40.3110 -74.7170 338° Northwest 178 205 2,000 -1,167 Descending FlightAware
14:19 40.3180 -74.7270 313° West 172 198 1,700 -1,286 Descending FlightAware
14:19 40.3220 -74.7400 292° West 163 188 1,400 -857 Descending FlightAware
14:19 40.3170 -74.7570 249° West 136 157 1,200 -348 Descending FlightAware
14:20 40.2980 -74.7810 224° Southwest 126 145 1,000 -250 Descending FlightAware
14:28 40.2667 -74.8000 232° Southwest  Level FlightAware Approximate